Tracking 29528 objects as of 12-Sep-2024
HD Live streaming from Space Station
objects crossing your sky now

ONEWEB-0606

Track ONEWEB-0606 now!
10-day predictions
ONEWEB-0606 is classified as:


NORAD ID: 54670
Int'l Code: 2022-166AE
Perigee: 1,183.4 km
Apogee: 1,186.3 km
Inclination: 87.9 °
Period: 108.9 minutes
Semi major axis: 7555 km
RCS: Unknown
Launch date: December 8, 2022
Source: United Kingdom (UK)
Launch site: AIR FORCE EASTERN TEST RANGE (AFETR)
Your satellite tracking list
Your tracking list is empty




NASA's NSSDC Master Catalog

Two Line Element Set (TLE):
1 54670U 22166AE  24255.89070053  .00000017  00000-0  10857-4 0  9992
2 54670  87.9359  12.0742 0001923 102.7144 257.4205 13.21827082 86581
Source of the keplerian elements: AFSPC